This demonstration page uses our WeatherBlox Daily Observations layout. Learn more.

Left ArrowRight Arrow

40.92501, -98.34201

Hourly Observations for July 26, 2021

Temp ( °F °C ) Dew Point ( °F °C ) Humidity (%) Winds ( mph kmh ) Pressure ( in mb ) Visibility ( mi km ) Precip ( " mm )
12:53 am 00:53 Clear with Mist and Fog 67 19.4 63 17.2 87 87 Calm 30.05 1018 5 8 0.00 0.00
1:53 am 01:53 Clear with Mist and Fog 64 17.8 61 16.1 90 90 Calm 30.04 1017 4 6 0.00 0.00
2:50 am 02:50 Mostly Clear with Mist and Fog 64 18 61 16 88 88 SE 3 6 30.00 1016 4 6 0.00 0.00
2:53 am 02:53 Partly Cloudy with Mist and Fog 65 18.3 62 16.7 90 90 SE 3 6 30.02 1017 4 6 0.00 0.00
3:13 am 03:13 Mostly Cloudy with Mist and Fog 65 18.3 62 16.7 90 90 ESE 3 6 30.00 1016 4 6 0.00 0.00
3:47 am 03:47 Cloudy with Mist and Fog 70 21 66 19 88 88 SE 3 6 29.97 1015 3 4 0.00 0.00
3:48 am 03:48 Cloudy with Mist and Fog 69 20.6 66 18.9 90 90 SE 3 6 30.00 1016 3 4 0.00 0.00
4:02 am 04:02 Cloudy with Mist and Fog 69 20.6 66 18.9 90 90 SSE 5 7 29.97 1015 3 5 0.00 0.00
4:23 am 04:23 Cloudy with Mist and Fog 70 21.1 67 19.4 90 90 SSE 7 11 29.96 1015 2 2 0.00 0.00
4:29 am 04:29 Cloudy with Fog 70 21.1 68 20 93 93 SSE 7 11 29.96 1015 0 0 0.00 0.00
4:41 am 04:41 Mostly Cloudy with Fog 70 21.1 68 20 93 93 SSE 6 9 29.96 1015 0 0 0.00 0.00
4:53 am 04:53 Mostly Cloudy with Fog 70 21.1 68 20 93 93 SSE 7 11 30.00 1016 0 0 0.00 0.00
5:53 am 05:53 Mostly Cloudy with Fog 71 21.7 69 20.6 94 94 SSE 7 11 29.99 1016 0 0 0.00 0.00
6:03 am 06:03 Mostly Cloudy with Fog 71 21.7 69 20.6 94 94 SSE 8 13 29.96 1015 0 0 0.00 0.00
6:14 am 06:14 Mostly Cloudy with Fog 71 21.7 69 20.6 94 94 S 10 17 29.96 1015 0 0 0.00 0.00
6:44 am 06:44 Mostly Cloudy with Fog 71 21.7 69 20.6 94 94 S 7 11 29.97 1015 0 0 0.00 0.00
6:53 am 06:53 Mostly Cloudy with Fog 71 21.7 69 20.6 94 94 SSE 7 11 30.01 1016 0 0 0.00 0.00
7:04 am 07:04 Cloudy with Fog 71 21.7 69 20.6 94 94 SE 6 9 29.98 1015 1 1 0.00 0.00
7:30 am 07:30 Cloudy with Mist and Fog 71 21.7 69 20.6 94 94 SSE 9 15 29.99 1016 1 2 0.00 0.00
7:37 am 07:37 Cloudy with Fog 71 21.7 69 20.6 94 94 SSE 7 11 29.99 1016 1 1 0.00 0.00
7:53 am 07:53 Cloudy with Fog 72 22.2 69 20.6 91 91 S 8 13 30.03 1017 1 1 0.00 0.00
8:18 am 08:18 Cloudy with Mist and Fog 72 22.2 70 21.1 94 94 S 8 13 29.99 1015 2 3 0.00 0.00
8:26 am 08:26 Cloudy with Mist and Fog 72 22.2 70 21.1 94 94 S 8 13 29.99 1015 3 4 0.00 0.00
8:37 am 08:37 Mostly Cloudy with Mist and Fog 73 22.8 71 21.7 94 94 S 8 13 29.98 1015 3 5 0.00 0.00
8:53 am 08:53 Partly Cloudy with Mist and Fog 74 23.3 70 21.1 88 88 SSE 9 15 30.03 1017 5 8 0.00 0.00
9:53 am 09:53 Mostly Sunny 79 26.1 70 21.1 74 74 S 12 19 30.04 1017 8 13 0.00 0.00
10:02 am 10:02 Mostly Cloudy 78 25.6 71 21.7 79 79 SSE 14 22 29.97 1015 8 13 0.00 0.00
10:53 am 10:53 Mostly Cloudy 81 27.2 71 21.7 72 72 SSE 13 20 30.04 1017 8 13 0.00 0.00
11:30 am 11:30 Partly Cloudy 84 28.9 71 21.7 65 65 S 15 24 29.95 1014 10 16 0.00 0.00
11:53 am 11:53 Mostly Sunny 84 28.9 71 21.7 65 65 SSE 16 26 30.04 1017 9 14 0.00 0.00
12:43 pm 12:43 Mostly Cloudy 86 30 71 21.7 61 61 SSE 14 22 29.95 1014 10 16 0.00 0.00
12:53 pm 12:53 Mostly Cloudy 86 30 71 21.7 61 61 S 13 20 30.03 1017 10 16 0.00 0.00
1:36 pm 13:36 Partly Cloudy 88 31.1 71 21.7 57 57 SSE 13 20 29.94 1014 10 16 0.00 0.00
1:53 pm 13:53 Mostly Sunny 88 31.1 71 21.7 57 57 SE 13 20 30.03 1017 10 16 0.00 0.00
2:53 pm 14:53 Partly Cloudy 88 31.1 71 21.7 57 57 SSE 14 22 30.02 1017 10 16 0.00 0.00
3:53 pm 15:53 Partly Cloudy 90 32.2 72 22.2 56 56 SSE 12 19 30.01 1016 10 16 0.00 0.00
4:53 pm 16:53 Sunny 89 31.7 71 21.7 55 55 SSE 15 24 29.98 1015 10 16 0.00 0.00
5:53 pm 17:53 Sunny 87 30.6 72 22.2 61 61 SSE 12 19 29.96 1014 10 16 0.00 0.00
6:53 pm 18:53 Sunny 87 30.6 71 21.7 59 59 SSE 10 17 29.95 1014 10 16 0.00 0.00
7:53 pm 19:53 Sunny 84 28.9 71 21.7 65 65 SE 7 11 29.95 1014 10 16 0.00 0.00
8:53 pm 20:53 Sunny 81 27.2 71 21.7 72 72 SSE 8 13 29.97 1015 9 14 0.00 0.00
9:53 pm 21:53 Clear 79 26.1 71 21.7 77 77 SSE 8 13 29.98 1015 10 16 0.00 0.00
10:53 pm 22:53 Clear 77 25 71 21.7 82 82 SSE 7 11 29.99 1016 9 14 0.00 0.00
11:53 pm 23:53 Clear 76 24.4 70 21.1 82 82 S 8 13 29.98 1015 9 14 0.00 0.00

Powered by AerisWeather